Theta_e
311 310 310 311 314 317 319 320 320 320 320 319 318 317 316 315 314 313 312 312 312 312 312 312 312 312 311 311 310 309 307 306 304 304 303 303 303 302 301 300 299 298 297 296 296 295 295 295 295 295 294 294 294 294 294 294 294 294 293 293 293 292 292 292 291 292 295 295 294 294 293 292 292 291 290 290 290 289 289 288 288 289 289 289 289
310 310 310 311 312 314 316 316 316 316 316 315 315 315 315 314 313 312 312 312 312 312 312 312 311 311 311 310 308 306 305 304 304 303 303 303 302 301 299 298 298 297 296 296 295 295 295 295 295 295 294 294 294 294 294 294 293 293 293 293 293 292 291 291 291 291 293 295 294 293 292 291 290 290 289 288 289 289 289 289 289 289 289 289 289
309 309 309 309 310 312 312 313 313 313 313 313 314 314 314 313 312 312 312 312 312 312 311 311 311 310 309 307 305 304 304 303 303 303 302 301 300 299 298 297 297 296 296 295 295 295 295 295 295 294 294 293 293 293 293 293 293 293 293 293 292 292 291 290 290 290 291 293 294 292 291 290 289 289 288 288 288 289 289 289 289 290 290 289 288
309 309 309 310 310 311 311 311 312 313 313 314 314 313 312 312 312 312 312 311 311 311 311 310 309 308 306 305 304 304 303 303 303 302 300 299 298 298 297 297 296 296 296 295 295 295 295 295 294 293 293 293 293 293 293 293 293 293 293 293 292 292 291 290 289 289 289 290 292 291 290 289 289 288 288 288 289 289 289 290 289 289 289 289 288
309 309 310 310 311 311 311 312 313 314 314 314 313 312 312 312 312 311 311 311 311 311 310 308 306 305 304 303 303 303 302 302 301 299 298 298 297 297 297 296 296 296 295 295 295 295 294 294 293 293 293 293 293 293 293 293 293 293 293 292 292 291 291 290 289 289 288 288 289 290 289 288 288 288 288 288 289 289 290 290 289 288 288 288 288
310 311 311 311 312 312 313 313 314 314 313 313 312 312 312 312 311 311 311 310 310 309 308 306 304 303 303 303 302 302 301 300 299 298 297 297 297 297 296 296 296 295 295 295 294 294 293 293 293 293 293 293 293 293 293 293 293 293 292 292 291 291 290 289 288 288 288 287 288 289 289 288 288 289 289 288 287 288 288 288 289 289 288 288 288
313 313 313 313 313 313 314 313 313 313 312 312 312 312 312 311 311 311 310 310 309 308 306 305 304 303 302 302 302 301 300 299 298 297 297 297 297 296 296 295 295 295 295 294 293 293 293 292 292 292 292 292 292 292 292 293 292 292 291 291 290 290 289 289 288 287 287 288 288 288 288 288 289 289 289 288 288 287 285 285 287 288 288 287 288
314 313 313 314 314 313 313 312 312 312 312 312 312 312 311 311 310 310 309 308 307 306 305 304 304 303 302 302 301 300 299 298 297 297 297 296 296 296 295 295 295 294 294 293 293 292 292 292 292 292 292 292 292 292 292 292 292 291 290 290 289 289 288 288 288 287 287 288 288 288 288 288 289 289 288 288 287 286 285 283 283 285 285 286 287
313 313 313 313 313 313 312 312 312 312 312 312 312 311 311 310 310 309 308 306 304 304 303 303 303 303 302 301 300 299 298 297 297 297 296 296 296 295 295 295 294 294 293 292 292 292 292 292 292 292 292 292 291 291 291 291 290 290 289 289 289 288 288 288 287 288 288 288 288 287 287 288 288 287 287 286 285 284 284 283 283 283 283 284 286
312 312 312 312 312 312 312 312 312 312 312 311 311 311 310 310 309 307 305 304 303 303 303 302 302 301 301 300 299 298 297 297 296 297 296 296 295 295 295 294 294 293 292 292 292 292 292 292 292 291 291 291 291 291 291 290 290 289 289 288 288 288 288 288 288 288 287 287 287 286 286 287 288 286 285 285 284 284 283 283 283 283 283 283 284
312 312 312 312 312 312 312 312 312 312 311 311 310 310 310 309 307 305 304 303 302 302 302 302 301 300 300 299 298 297 297 296 296 296 296 295 295 294 294 294 293 292 292 292 292 292 292 292 291 291 291 291 291 290 290 290 289 289 288 288 288 287 287 288 287 287 286 286 287 286 285 286 287 286 285 284 283 283 283 283 283 283 283 283 283
313 312 312 312 312 312 312 312 312 311 311 311 310 309 309 307 306 304 303 302 302 301 301 301 300 299 298 298 297 297 296 296 296 296 295 295 294 294 293 293 292 292 292 292 292 292 292 291 291 291 291 290 290 290 290 289 289 289 288 288 287 287 287 287 287 286 286 286 287 287 286 284 285 285 284 283 283 283 283 283 283 283 283 283 282
313 313 313 312 312 312 312 312 312 311 311 310 310 309 307 306 304 303 302 302 301 301 300 300 299 298 297 297 296 296 296 296 296 295 295 294 294 293 293 292 292 292 292 292 291 291 291 291 290 290 290 290 290 289 289 289 289 289 288 288 287 287 287 287 287 286 286 286 286 287 286 284 284 284 284 283 283 283 283 283 283 282 282 282 282
313 312 312 312 312 312 312 312 311 311 310 310 309 307 306 304 303 302 301 301 300 300 299 299 298 297 296 296 296 296 296 295 295 295 294 294 293 293 292 292 291 291 291 291 291 291 291 290 290 289 289 289 289 289 289 289 288 288 288 287 287 287 287 287 287 286 286 286 285 286 286 284 283 283 283 283 282 282 282 282 282 282 281 282 282
312 312 312 312 312 312 312 311 311 310 310 309 307 305 304 302 301 300 300 300 299 299 299 298 297 296 296 296 296 295 295 295 294 294 294 293 293 292 291 291 291 291 291 291 290 290 290 289 289 289 289 289 289 289 288 288 288 288 288 287 287 287 287 287 287 287 286 286 285 285 285 284 283 283 283 283 282 282 282 281 281 281 281 281 281
312 312 311 311 311 311 311 311 310 310 309 307 305 303 302 301 300 299 299 299 298 298 297 296 296 296 295 295 295 295 295 294 294 294 293 293 292 292 291 291 291 291 291 290 290 289 289 289 289 289 289 288 288 288 288 288 288 288 287 287 287 287 287 287 287 287 287 286 285 285 285 284 284 284 283 283 282 281 281 281 281 280 280 281 281
311 311 311 311 311 311 311 310 310 309 307 306 304 302 301 300 299 299 299 298 298 297 296 296 295 295 295 294 294 294 294 294 293 293 293 292 292 291 291 291 291 291 290 290 289 289 288 288 288 288 288 288 288 288 287 287 287 287 287 287 288 288 287 287 287 287 287 286 286 286 285 285 284 284 284 284 282 281 280 280 280 280 280 280 281
311 311 311 311 311 311 310 310 309 308 306 304 303 301 300 299 299 299 298 298 297 296 296 295 294 294 294 294 294 294 293 293 293 293 292 292 291 291 291 291 291 290 290 289 289 289 288 288 288 288 288 288 287 287 287 287 287 287 287 287 288 288 288 287 287 287 287 287 287 286 286 285 285 285 285 284 282 280 279 279 279 279 279 280 280
311 311 311 311 311 310 309 309 308 306 304 303 301 300 299 298 298 298 297 296 296 295 295 294 294 294 294 294 294 293 293 293 292 292 292 292 291 291 290 290 290 290 290 289 289 288 288 287 287 287 287 287 287 287 287 286 287 287 287 287 287 287 287 287 287 287 287 287 287 287 286 286 285 285 285 285 284 282 280 278 278 279 279 280 280
311 310 310 310 310 309 309 308 306 304 302 301 299 298 298 298 297 297 296 295 294 294 294 294 294 294 294 293 293 292 292 292 292 292 292 292 291 290 290 290 290 290 289 289 289 288 288 287 287 287 287 286 286 286 286 286 286 286 286 286 287 287 287 287 286 286 286 287 287 287 287 286 286 285 286 286 285 285 283 280 279 278 279 279 280
310 310 310 310 309 309 308 307 304 302 300 299 298 298 297 297 297 296 295 294 293 293 293 293 293 293 293 292 292 292 292 292 292 292 292 291 291 290 290 290 290 289 289 289 288 288 287 287 287 286 286 286 286 286 286 286 286 286 286 286 286 286 286 286 286 286 286 286 287 287 286 286 286 286 286 286 286 285 285 283 281 279 279 279 279
309 309 309 309 309 308 307 305 302 300 298 298 298 297 297 296 295 294 294 294 293 293 293 293 293 293 292 292 291 291 291 292 293 293 293 291 290 290 289 289 289 289 289 288 288 287 287 287 286 286 286 286 286 286 286 286 285 285 285 285 285 285 285 285 285 286 286 286 286 286 286 286 286 286 286 286 286 285 285 284 283 281 279 279 279
308 308 308 308 307 306 305 302 300 298 297 297 296 296 296 295 294 293 293 293 293 293 293 293 292 292 292 291 291 291 292 294 295 294 292 290 290 289 289 289 289 288 288 288 287 287 286 286 286 286 286 286 285 285 285 285 285 284 284 285 285 285 285 285 285 285 286 286 286 286 286 285 285 285 285 285 285 285 285 284 283 282 280 280 279
307 307 307 307 306 305 302 300 298 297 296 296 295 295 294 294 293 293 292 292 292 292 292 292 292 291 291 290 291 293 295 295 294 292 291 290 289 289 288 288 288 288 287 287 287 286 286 286 286 286 285 285 285 285 285 284 284 284 284 284 284 284 284 284 285 285 285 285 285 286 285 285 284 285 285 285 285 284 285 284 283 281 280 279 279
307 307 306 306 305 304 301 299 297 296 295 295 294 294 294 293 293 293 292 292 292 292 292 292 291 290 290 292 294 296 296 295 292 291 290 289 289 288 288 288 288 287 287 286 286 286 286 286 286 285 285 285 285 285 284 284 284 284 284 284 284 284 284 284 284 284 284 285 285 285 284 284 284 284 284 284 284 284 284 284 284 282 280 280 279
307 306 306 306 304 302 300 298 296 295 295 294 293 293 293 293 293 293 292 292 291 291 291 291 290 290 293 296 297 297 295 293 291 290 289 289 288 288 288 288 287 287 287 286 286 286 286 286 285 285 285 285 285 285 284 284 284 284 284 284 284 284 284 283 283 283 283 283 283 283 283 283 284 284 283 283 283 282 282 282 283 282 281 280 279
306 306 305 305 304 301 299 297 296 295 294 293 293 293 292 292 292 292 292 292 292 291 290 290 292 295 297 298 297 296 293 291 289 289 289 288 288 288 288 287 287 286 286 286 286 286 286 285 285 285 285 285 284 284 284 284 284 284 284 284 284 283 283 282 282 282 282 282 282 282 283 283 283 283 283 282 282 282 281 280 280 280 279 278 278
305 305 305 304 303 300 298 296 296 295 294 293 293 292 292 292 292 291 292 291 291 290 291 294 297 298 298 297 295 293 291 289 289 289 288 288 288 288 287 287 287 286 286 286 286 286 285 285 285 285 285 284 284 284 284 284 284 284 284 284 283 283 282 282 281 281 281 281 281 282 282 282 282 283 282 281 281 281 280 279 278 278 277 277 277
304 304 303 303 301 299 297 295 295 294 294 293 293 292 292 291 291 291 291 290 290 293 296 298 300 299 296 294 292 291 289 289 288 288 288 288 288 287 287 287 287 286 286 286 286 285 285 285 285 285 285 284 284 284 284 284 284 284 284 283 283 283 282 282 281 281 280 280 281 281 281 281 281 281 281 281 280 280 279 279 278 277 277 277 276
304 303 302 301 300 298 296 295 294 294 293 293 293 292 291 291 290 290 289 290 293 297 300 300 299 297 294 292 290 289 288 288 288 288 287 287 287 287 287 287 286 286 286 286 285 285 285 285 285 285 284 284 284 284 284 284 284 284 283 283 282 282 282 281 280 280 280 280 280 280 279 279 279 279 279 280 280 279 278 278 277 277 277 277 276
303 303 302 301 299 297 296 295 294 294 293 293 292 292 291 291 290 289 290 294 298 300 300 300 298 296 293 291 289 288 288 288 287 287 287 286 286 286 286 286 286 286 286 285 285 285 285 285 284 284 284 284 284 284 284 284 283 283 283 282 282 281 281 280 280 280 280 280 280 279 279 278 278 278 278 278 278 278 278 278 277 277 277 276 276
302 302 301 300 299 297 295 295 294 293 293 292 291 291 291 291 290 291 294 298 300 300 300 300 298 295 292 289 288 287 287 288 287 287 286 286 286 286 286 286 286 285 285 285 285 285 284 284 284 284 284 284 283 283 283 283 283 282 282 282 281 281 280 280 279 279 279 279 279 279 279 278 277 277 277 277 277 277 277 277 277 277 277 276 276
302 301 301 299 298 296 295 294 294 293 293 292 291 291 291 291 291 294 298 300 299 300 300 299 296 292 289 287 287 287 287 287 287 286 286 286 285 286 286 285 285 285 285 284 284 284 284 284 283 283 283 283 283 283 283 282 282 282 282 281 281 280 280 279 279 279 279 279 279 279 279 278 277 277 277 277 277 277 277 277 277 277 276 276 276
301 300 299 298 297 296 295 294 294 293 292 292 292 292 291 291 292 296 299 300 299 300 300 297 293 289 287 287 287 287 287 287 286 286 285 285 285 285 285 285 285 284 284 284 284 283 283 283 283 283 283 283 282 282 282 282 282 281 281 281 280 280 279 279 279 279 279 278 278 278 278 278 277 277 277 277 277 277 277 277 277 277 276 276 276
299 299 298 297 296 295 295 294 293 293 292 292 291 292 291 291 293 297 300 299 299 300 299 295 290 287 287 287 287 286 287 286 286 285 285 285 285 285 285 284 284 284 284 283 283 283 282 282 282 282 282 282 282 282 282 281 281 281 281 280 280 279 279 279 279 279 279 278 278 278 278 278 277 277 277 278 278 278 278 278 277 277 276 276 276
298 298 297 296 295 294 294 293 293 292 292 292 291 291 290 291 294 298 299 298 298 297 294 291 289 287 287 287 286 286 286 286 285 285 285 285 285 284 284 284 284 283 283 283 282 282 282 282 282 282 282 282 281 281 281 281 281 280 280 280 279 279 279 279 279 279 279 278 278 278 278 278 278 278 278 278 278 278 278 278 277 277 276 276 276
298 297 297 296 295 294 293 292 292 292 292 291 291 291 290 291 293 295 296 295 294 292 289 288 287 287 287 286 286 286 286 285 285 285 285 284 284 284 284 283 283 283 282 282 281 281 281 281 281 281 281 281 281 281 281 280 280 280 279 279 279 279 279 279 279 279 279 278 278 278 278 278 278 278 278 278 278 278 278 278 277 277 277 276 276
297 297 296 295 294 293 292 292 291 291 291 291 291 291 290 290 292 292 292 291 290 288 287 287 287 286 286 286 286 286 285 285 285 285 285 284 284 284 283 283 282 282 281 281 281 281 281 281 281 281 281 280 280 280 280 280 280 279 279 279 279 279 279 279 278 278 278 278 278 278 278 278 278 278 278 278 278 278 278 278 277 277 277 276 276
296 296 296 295 294 293 292 291 291 291 291 291 290 290 290 290 290 290 289 288 288 287 287 287 286 286 286 285 285 285 285 285 285 285 284 284 284 283 283 282 282 281 281 281 281 280 280 280 280 280 280 280 280 280 280 280 280 279 279 279 279 278 278 278 278 278 278 278 278 277 278 278 278 277 277 277 277 277 277 277 277 277 277 276 276
296 295 295 294 293 292 291 290 290 290 290 290 290 290 290 289 289 289 288 287 287 287 287 287 287 286 285 285 285 285 285 284 284 284 284 284 283 283 282 282 281 281 281 280 280 280 280 279 279 279 279 279 279 279 279 279 279 279 279 278 278 278 278 278 278 278 278 278 277 277 277 277 277 277 277 277 277 277 277 277 277 277 276 276 276
295 295 294 294 293 292 291 290 290 290 290 290 290 289 289 289 289 288 288 287 287 287 287 287 286 286 285 285 285 285 284 284 284 284 284 284 283 282 282 282 281 280 280 280 280 279 279 279 279 279 279 279 279 279 279 279 279 279 279 278 278 278 277 277 277 277 277 277 277 277 277 277 277 277 277 277 277 277 277 277 277 276 276 276 276
295 295 294 293 292 292 291 290 290 290 290 290 289 289 289 288 288 288 287 287 287 286 286 286 286 285 285 285 284 284 284 284 284 284 284 283 283 282 282 281 280 280 280 280 279 279 278 278 278 278 278 278 278 278 278 278 278 278 278 278 278 277 277 277 277 277 277 277 277 277 277 277 277 277 276 277 277 276 276 276 276 276 276 276 277
295 295 293 292 292 291 291 290 290 289 289 289 289 289 288 288 287 287 287 287 286 286 286 286 285 285 285 284 284 284 284 284 284 283 283 283 282 282 281 281 280 279 279 279 279 278 278 278 278 277 277 277 277 277 277 277 277 277 277 277 277 277 277 276 276 276 276 276 277 277 277 277 276 276 276 276 277 276 276 276 276 275 276 276 277
294 294 294 293 291 290 290 290 289 289 289 289 288 288 288 287 287 287 286 286 286 286 286 285 285 285 285 285 284 284 284 283 283 283 283 282 282 281 281 280 279 279 279 279 278 278 277 277 277 277 277 277 276 276 276 276 276 276 276 276 276 276 276 276 276 276 276 276 276 276 276 276 276 276 276 276 276 276 276 276 276 275 276 276 276
293 293 293 293 292 291 290 289 289 289 288 288 288 288 287 287 287 286 286 285 285 285 285 285 284 285 285 285 284 284 284 283 283 282 282 282 281 280 280 279 279 278 278 278 278 277 277 276 276 276 276 276 276 276 275 275 275 276 275 275 275 275 275 275 275 275 275 275 275 275 276 276 276 276 276 276 276 276 276 276 276 276 276 276 276
292 292 292 291 291 291 290 289 288 288 288 288 288 287 287 287 287 286 286 285 285 285 285 284 284 284 284 285 284 284 283 282 283 283 282 281 280 280 279 279 278 278 278 278 277 277 276 276 276 276 276 276 276 275 275 275 275 275 275 275 274 274 274 273 273 273 273 274 274 275 275 275 276 276 276 276 276 276 276 276 276 276 276 275 276
292 291 291 291 290 290 290 289 288 287 287 287 287 287 287 286 286 285 285 285 284 284 284 284 284 284 284 284 284 283 283 283 283 282 281 280 280 279 279 278 278 277 277 277 277 276 276 276 276 276 276 275 275 275 274 275 275 275 275 274 274 274 273 273 273 272 272 272 273 273 274 274 275 275 275 275 275 275 275 275 276 276 276 275 275
291 291 291 290 290 290 289 289 288 287 286 286 286 286 286 285 285 284 284 284 284 284 284 283 283 284 284 284 283 283 283 283 282 281 280 280 279 279 278 278 277 277 277 277 276 276 276 276 276 276 275 275 275 274 274 274 274 274 274 274 273 273 273 273 273 272 272 272 272 272 272 273 274 274 274 275 275 275 275 275 275 275 275 275 275
291 291 290 290 290 289 289 288 288 287 286 285 284 284 284 284 284 284 283 283 283 283 283 283 283 283 283 283 283 283 282 282 281 280 280 279 279 278 278 277 277 277 276 276 276 276 275 275 276 275 275 275 274 274 274 274 274 274 274 273 273 273 273 273 273 272 272 272 271 271 271 272 272 273 273 274 274 274 275 274 275 275 275 275 275
290 290 290 289 289 289 288 287 287 287 286 284 283 283 283 283 284 283 283 282 282 282 282 282 282 283 283 283 283 282 282 281 281 280 280 279 278 278 277 277 277 276 276 276 276 275 275 275 275 275 275 274 274 274 274 274 274 274 273 273 272 272 272 272 272 272 272 272 271 271 271 271 271 271 272 272 273 274 274 274 274 274 274 275 275
288 289 289 289 289 288 287 286 286 286 285 284 283 282 282 282 282 282 282 282 282 281 281 281 282 282 282 282 282 281 281 280 280 280 279 278 278 277 277 276 276 276 276 276 275 275 275 275 275 275 275 274 274 274 274 274 274 274 274 273 272 272 272 272 272 272 271 271 271 271 271 271 271 271 271 271 272 272 273 273 273 274 274 274 274
Wind_Speed
30 30 30 30 30 29 29 29 29 30 30 29 29 28 26 25 25 26 25 24 24 22 21 18 16 15 14 14 13 13 12 11 10 8 6 5 4 3 4 4 5 5 6 6 7 8 10 11 13 14 15 17 18 18 19 19 21 22 23 26 27 28 30 33 38 47 53 53 52 54 54 55 56 56 56 58 58 57 56 55 55 55 55 55 55
27 27 27 28 28 28 29 29 29 30 29 29 28 27 26 27 27 27 26 25 24 21 18 17 16 15 15 15 14 14 12 10 9 7 6 5 5 4 5 5 6 6 6 7 8 9 12 13 14 16 17 18 18 19 20 20 21 23 24 25 27 28 29 32 37 44 52 56 55 55 55 54 55 55 55 55 56 57 57 56 55 55 55 54 55
24 25 26 27 28 28 29 29 29 28 28 27 27 27 28 28 28 27 26 24 22 20 18 17 17 16 16 15 14 13 12 10 9 8 7 6 6 5 5 5 6 7 7 9 10 11 13 15 16 17 17 17 18 19 20 21 22 23 25 26 28 30 30 32 36 40 48 55 57 56 55 55 54 53 53 53 54 54 56 57 55 55 56 56 55
23 24 26 26 27 27 27 27 27 27 27 27 28 29 29 29 28 27 25 23 20 20 19 18 18 17 16 15 14 13 12 11 10 8 8 7 6 6 6 6 7 8 9 10 11 13 14 15 16 16 17 18 19 20 21 22 23 25 27 28 30 32 33 33 35 38 43 51 55 55 54 54 54 52 52 53 53 53 54 55 56 57 58 57 57
23 24 25 26 27 27 26 27 27 27 28 29 29 30 29 29 28 26 23 22 21 21 20 19 18 17 16 15 14 13 12 10 9 8 8 7 6 7 7 7 8 9 10 11 12 13 14 15 16 17 18 19 19 20 21 23 25 27 29 31 32 34 35 35 36 37 39 45 50 53 53 52 52 52 50 50 53 54 55 56 57 57 58 59 58
23 23 25 26 26 27 27 28 28 28 30 30 29 29 29 28 26 24 23 23 22 21 21 21 20 18 17 16 14 13 11 10 9 8 7 7 7 7 8 8 9 10 11 12 13 14 14 15 17 18 19 19 20 21 23 25 28 29 31 33 34 35 36 36 37 37 39 41 45 49 51 51 51 52 50 49 51 53 54 57 58 58 58 60 61
23 24 25 26 26 28 28 28 29 29 30 30 29 29 28 26 25 24 24 24 23 22 22 22 21 19 18 16 14 13 11 10 9 8 8 8 8 8 9 9 10 10 12 13 13 14 15 16 18 18 19 20 21 23 26 28 30 32 33 34 35 36 37 37 37 38 39 41 42 45 48 49 50 51 51 50 51 51 50 53 57 59 59 60 63
24 25 25 26 27 29 29 29 29 30 29 29 29 28 27 26 25 25 25 25 24 23 23 22 21 19 18 16 15 13 12 11 9 9 9 9 9 9 9 10 11 12 12 13 13 14 16 17 18 18 19 21 23 26 28 30 32 33 33 34 35 35 36 37 37 38 39 41 42 43 46 49 50 51 51 51 51 52 50 49 53 58 59 60 63
24 25 26 27 29 29 30 30 30 30 30 29 29 28 27 27 27 27 27 26 25 24 23 21 20 19 18 17 15 14 12 11 10 10 10 10 10 10 10 11 12 12 13 13 14 15 16 17 18 19 20 22 25 27 29 30 32 33 33 34 34 35 35 35 36 37 39 41 42 42 45 49 50 49 50 50 49 51 52 51 53 57 59 60 62
25 26 27 28 29 29 30 30 30 30 30 30 29 28 29 29 29 29 28 27 26 25 23 22 20 19 18 17 16 14 12 11 10 10 10 10 11 11 12 13 13 13 13 14 15 16 16 17 18 20 21 24 26 27 29 30 31 31 32 32 33 33 34 35 35 36 37 39 41 42 43 47 48 46 47 48 48 50 52 53 55 57 59 60 61
26 27 28 28 28 29 29 30 30 30 30 29 29 29 30 30 30 30 29 28 27 25 24 23 21 20 19 17 16 14 12 12 11 11 11 11 11 12 13 14 14 14 15 15 16 16 16 18 19 21 22 24 26 28 29 30 30 30 30 30 30 31 32 33 34 34 35 37 40 41 41 44 46 46 46 47 48 49 51 53 55 56 57 58 60
27 28 27 28 28 29 29 30 30 30 30 30 31 31 31 32 31 31 30 29 27 26 24 23 22 21 19 18 15 14 13 12 12 12 12 12 12 13 14 14 15 16 16 17 17 17 18 19 20 22 23 25 26 28 28 29 30 30 30 30 29 29 29 29 30 32 34 36 39 41 40 40 44 45 45 46 47 49 51 52 53 54 54 55 57
29 29 29 29 30 30 30 31 31 31 31 31 32 33 33 33 32 31 31 29 28 27 25 24 23 21 19 17 15 14 13 12 12 12 13 13 13 14 15 15 16 17 17 17 17 18 19 20 21 23 24 25 26 27 28 30 31 31 31 30 30 29 28 27 27 28 31 33 37 40 39 38 41 44 44 44 45 47 49 50 50 51 52 54 55
31 31 31 31 32 32 32 33 33 33 33 34 35 35 35 34 33 32 31 30 29 28 26 25 23 21 19 17 15 14 13 13 13 13 13 13 14 15 16 17 17 18 18 18 18 19 20 22 23 24 24 25 26 27 29 30 31 32 32 31 30 29 28 27 28 29 30 32 34 37 39 37 39 42 43 42 42 43 44 46 47 47 49 51 53
33 33 33 33 34 34 35 35 35 35 36 36 37 37 36 35 34 33 32 30 29 27 26 24 22 20 18 17 16 15 14 14 14 14 14 14 15 16 17 18 18 19 19 19 19 19 21 22 24 24 24 25 26 27 29 30 31 32 32 32 31 30 28 28 29 30 31 31 32 34 36 37 37 40 40 39 38 39 39 41 43 44 46 49 51
35 35 35 35 35 36 36 36 37 37 38 39 39 38 37 36 35 34 32 31 29 27 26 24 22 20 19 17 16 15 15 14 14 14 14 15 16 17 18 19 19 19 19 19 19 20 21 23 24 25 25 26 26 27 27 29 30 31 32 32 32 31 29 29 29 30 31 31 31 32 34 35 36 36 36 36 35 36 37 39 40 41 44 48 50
37 36 36 36 36 37 37 38 38 39 40 40 40 39 38 37 36 34 33 31 30 28 26 24 22 21 19 18 17 16 15 14 14 14 15 16 17 18 19 20 20 20 19 19 19 20 21 23 24 25 25 25 26 26 26 28 29 31 32 33 34 33 32 31 31 30 30 30 31 32 33 34 34 34 35 36 34 32 34 37 40 41 43 46 48
38 38 38 38 38 38 39 39 40 41 41 42 41 40 39 38 36 34 33 31 29 28 26 25 23 21 20 18 17 16 15 14 14 15 16 17 18 19 20 21 21 21 20 20 20 20 21 22 23 24 25 25 25 25 25 26 28 30 32 34 36 36 35 35 35 35 34 33 32 33 33 34 34 35 36 37 34 31 31 35 38 39 41 44 47
40 39 39 39 39 39 40 41 42 42 42 42 41 40 38 37 36 34 33 31 29 28 27 25 23 22 20 18 16 16 15 14 14 15 16 18 20 20 21 22 22 22 21 20 21 21 21 22 22 23 23 23 23 24 24 25 27 29 31 33 35 36 36 37 37 38 38 37 36 35 35 35 36 36 37 38 37 35 34 34 35 36 38 42 45
39 40 39 39 40 41 42 42 42 43 42 41 40 39 38 37 36 34 33 31 29 28 27 25 23 21 19 18 16 15 14 14 14 16 17 20 22 22 23 23 23 23 22 21 21 21 21 21 21 21 21 21 21 22 23 24 26 27 29 31 33 35 36 37 36 36 37 37 37 37 37 37 37 37 37 38 39 39 39 37 35 34 35 39 43
39 40 40 40 41 42 42 43 43 43 42 41 40 39 38 37 36 35 33 32 30 28 26 24 23 20 19 18 16 15 14 13 14 16 19 22 24 24 24 24 24 23 22 22 22 22 22 22 21 21 21 20 21 22 23 24 25 26 27 29 30 32 34 35 35 35 35 36 37 37 37 38 38 37 37 38 40 42 43 41 38 35 35 37 40
39 40 41 41 42 42 43 44 44 43 43 42 41 40 39 37 36 34 32 31 29 28 26 24 22 20 19 18 16 14 13 14 15 18 21 23 25 25 25 24 24 24 23 22 22 22 22 22 22 21 21 21 21 22 22 23 24 25 26 27 28 30 31 32 33 34 35 35 37 37 37 37 38 38 37 38 40 43 44 43 41 39 37 36 37
38 40 41 42 42 43 44 45 45 44 44 43 42 40 39 37 35 33 32 30 29 27 26 24 22 20 19 17 15 14 14 15 17 20 23 24 25 25 24 24 24 23 22 22 22 22 22 22 22 22 21 21 22 22 22 23 24 24 25 26 27 28 29 30 31 32 33 34 35 36 36 36 37 37 38 39 41 43 44 44 42 41 39 38 37
38 39 41 42 43 44 45 46 46 45 44 43 41 40 38 37 35 33 32 30 29 27 25 23 22 20 19 16 15 15 16 17 18 21 24 25 25 24 23 23 23 22 21 21 21 21 22 22 22 22 21 21 22 22 22 23 23 24 25 26 27 28 28 30 30 31 32 33 34 35 35 34 35 36 37 39 41 42 43 43 42 40 38 38 38
37 38 40 42 43 45 46 46 46 45 44 42 41 39 38 37 35 34 33 31 29 26 25 23 21 20 18 16 16 17 17 17 20 23 25 25 23 23 22 22 22 21 20 20 20 20 21 22 22 21 21 22 22 23 23 23 23 24 25 26 27 28 29 29 30 30 31 32 33 34 34 34 34 35 37 39 40 41 43 44 44 42 41 40 40
35 37 39 41 43 46 47 47 47 45 43 42 40 39 37 36 35 34 33 31 29 26 25 23 21 20 18 18 17 17 17 19 23 25 25 23 22 22 22 21 21 20 19 19 19 19 20 21 21 21 22 22 23 23 23 24 24 24 25 26 27 28 29 29 29 30 31 32 32 33 33 34 34 35 36 39 40 40 41 42 44 45 43 43 43
34 36 39 42 45 46 47 48 48 46 44 42 40 39 37 36 35 34 33 31 29 27 25 23 21 20 19 18 17 18 20 23 25 25 24 23 22 21 21 20 19 19 18 19 19 19 20 21 21 22 22 22 22 23 23 24 24 24 25 26 27 27 27 27 27 28 28 30 31 32 33 34 34 35 37 39 40 40 39 39 41 42 42 43 43
33 35 38 42 45 47 48 48 48 46 45 43 41 40 38 37 35 34 32 30 27 26 24 22 21 20 19 18 19 21 25 26 26 24 23 22 21 21 21 20 19 18 19 19 20 20 20 21 21 21 21 21 21 21 21 22 23 24 25 25 26 26 26 26 25 25 26 28 30 31 33 34 34 36 37 39 40 40 39 38 38 39 40 41 42
32 35 38 42 45 47 48 48 47 46 45 43 42 40 39 37 35 33 30 28 26 25 24 22 21 20 19 20 23 26 28 27 25 24 22 21 21 21 20 20 19 19 19 20 19 19 20 20 21 21 21 21 21 21 22 22 23 23 24 24 25 25 25 26 26 26 26 28 29 31 33 34 35 36 37 39 40 40 39 38 37 39 40 40 41
33 35 38 41 45 47 48 48 47 46 45 44 43 41 39 37 34 32 30 29 27 25 24 23 22 21 22 25 28 30 29 27 25 23 21 20 20 20 20 20 19 19 19 19 19 19 19 20 21 21 21 21 22 22 23 23 24 24 23 23 24 25 25 25 26 26 27 28 29 31 32 34 35 37 38 40 41 41 40 38 37 38 39 40 40
33 35 37 41 44 46 48 48 47 46 45 44 43 42 41 39 36 34 32 31 28 26 25 25 24 25 27 30 32 31 29 27 24 22 20 19 19 19 19 19 19 18 18 18 19 19 20 20 21 21 21 21 21 22 23 23 23 24 24 23 23 23 24 25 25 26 27 28 29 30 31 32 34 36 37 39 41 41 41 40 38 38 38 38 38
33 34 36 40 43 46 47 48 47 47 46 45 44 43 42 40 38 36 33 30 27 27 27 28 28 29 31 33 33 31 28 26 24 21 19 18 18 18 19 18 18 18 18 18 19 20 20 20 20 20 20 21 21 21 22 22 22 23 23 23 23 22 23 24 24 25 26 28 29 30 31 32 33 35 36 37 39 40 40 40 39 38 37 36 35
32 34 36 39 43 46 48 48 48 48 47 46 46 44 42 41 40 37 32 29 28 30 32 32 32 33 34 34 32 30 28 26 23 21 18 17 18 18 18 18 17 17 18 18 19 20 20 20 20 20 20 20 20 20 20 21 21 21 22 22 21 21 21 22 23 24 25 27 28 29 30 31 32 34 35 35 36 37 38 38 38 37 36 34 34
32 34 35 38 42 46 47 48 48 48 47 47 47 45 44 43 41 37 32 31 33 35 37 36 36 36 36 34 32 30 27 25 22 20 18 17 18 18 18 18 17 17 17 18 19 19 19 19 19 20 20 20 20 20 19 20 20 20 20 20 19 19 20 21 22 24 25 26 27 28 29 30 31 33 34 35 35 35 35 36 36 36 34 33 33
32 34 36 38 42 45 47 48 48 48 48 48 47 46 45 44 42 37 34 35 38 39 39 39 39 38 37 35 32 29 27 24 22 20 18 18 18 18 18 18 17 17 17 18 18 18 18 18 19 19 19 19 19 19 19 19 19 19 19 19 19 19 20 21 23 24 24 25 26 27 28 29 29 31 32 33 33 34 34 34 35 34 32 31 31
32 34 37 39 42 44 47 48 48 48 48 48 47 47 46 45 43 40 38 39 39 38 38 38 37 37 36 34 31 29 27 24 22 20 19 18 18 18 18 18 18 18 18 17 18 18 18 18 19 19 19 19 18 18 18 18 18 18 18 19 19 19 20 21 22 23 24 25 26 26 27 28 28 29 30 30 30 31 32 32 33 33 30 29 29
32 34 37 39 42 44 46 48 48 48 48 48 48 48 48 48 46 44 42 41 40 38 38 37 37 37 36 33 30 29 27 25 23 21 20 19 19 19 18 18 18 18 17 17 17 18 19 19 19 19 19 19 18 18 18 18 18 17 17 17 18 19 20 20 21 22 23 24 25 26 26 27 27 28 29 29 28 28 29 30 31 31 29 26 26
32 34 36 39 42 44 46 48 49 49 49 50 50 50 50 50 49 46 43 41 40 40 40 38 37 36 34 31 29 29 27 26 24 22 21 20 19 19 19 18 18 17 16 16 17 18 18 18 19 18 18 18 18 18 18 18 18 18 17 17 17 17 19 19 19 20 21 23 24 25 25 26 26 27 28 28 27 27 27 28 29 30 28 25 25
32 33 36 39 42 44 46 48 49 49 50 51 51 51 52 52 50 47 45 44 43 42 41 39 37 35 32 30 30 30 29 27 25 23 22 21 20 20 19 18 18 17 17 17 17 18 18 18 18 18 18 18 18 18 18 18 18 19 18 18 17 17 18 19 19 19 21 22 23 24 24 25 25 26 27 27 26 25 26 26 27 28 27 25 23
32 33 36 39 42 45 47 49 50 51 51 51 52 53 53 52 50 48 46 45 44 42 41 39 37 34 32 32 32 32 30 27 25 24 24 23 22 21 19 18 18 18 19 18 18 18 18 17 17 17 17 18 18 18 19 19 19 19 19 19 19 18 18 19 19 20 20 22 23 24 24 24 25 25 26 27 26 25 24 24 25 25 24 23 22
30 33 35 38 42 45 47 49 51 51 51 51 51 52 52 52 50 49 48 47 45 43 41 38 36 33 33 33 33 32 30 28 27 26 25 24 23 21 20 19 19 19 20 19 19 18 18 17 17 17 17 18 18 19 19 19 19 19 19 20 19 19 19 19 19 20 20 21 22 23 23 23 24 24 25 26 26 25 24 22 22 23 22 21 20
28 31 34 37 41 45 48 50 51 51 52 52 51 51 52 52 51 51 50 48 46 43 41 38 36 35 35 35 34 33 32 31 30 28 27 25 23 22 20 20 20 20 20 20 19 18 18 17 17 17 17 17 18 18 19 19 19 19 20 20 20 20 20 20 19 20 20 20 21 22 23 22 23 23 24 24 26 26 25 22 21 20 21 19 18
28 30 33 36 40 44 47 49 51 52 53 53 52 52 52 52 52 51 50 48 46 44 42 40 38 37 37 36 35 35 34 33 31 29 27 25 24 22 22 22 21 21 20 20 19 18 17 16 16 16 16 17 17 18 18 18 19 19 20 21 21 21 21 21 21 21 21 20 20 21 22 22 22 22 23 23 24 24 25 23 21 19 19 18 17
28 29 31 35 38 42 46 49 51 53 53 53 52 52 53 52 52 51 50 48 47 45 43 41 40 39 38 38 37 37 36 34 31 29 27 25 24 24 23 23 22 21 20 20 19 18 16 15 15 15 15 16 16 16 17 17 18 19 20 20 21 22 22 23 23 22 22 22 21 21 21 21 21 21 22 22 22 23 23 23 22 20 18 17 16
28 29 31 32 35 40 44 47 50 53 53 54 54 54 53 53 53 52 50 49 48 46 44 43 42 41 40 39 39 39 37 34 31 29 28 26 26 25 24 23 22 21 20 19 19 18 16 15 14 14 14 15 15 15 16 17 17 19 20 20 21 22 22 23 23 23 23 23 23 22 21 21 21 21 21 21 21 21 21 22 22 20 18 17 16
29 29 30 32 34 36 40 44 48 51 53 55 55 55 54 54 53 53 52 51 49 48 46 45 44 43 41 40 40 39 37 34 33 31 30 28 27 26 24 23 21 21 20 19 19 18 16 15 15 14 14 14 14 14 15 16 17 18 19 20 21 21 22 23 23 22 22 23 23 23 22 21 21 20 20 20 20 20 20 20 20 20 18 17 15
30 30 31 32 33 35 37 41 45 49 52 54 55 56 55 55 54 54 53 52 51 49 48 47 45 44 42 41 40 39 37 35 34 33 31 29 27 25 24 23 21 20 20 19 19 18 17 16 16 15 14 14 14 15 15 16 17 19 19 20 20 21 21 22 22 22 22 22 23 23 23 22 21 20 20 19 20 19 19 18 18 18 18 17 15
32 32 32 33 34 35 37 39 42 46 50 53 55 56 56 55 55 55 54 53 52 51 49 48 46 45 42 41 40 38 37 37 35 33 31 29 27 25 24 23 21 20 20 19 19 18 18 18 17 17 16 16 16 16 17 18 19 20 20 20 21 21 21 22 22 22 21 21 21 22 22 22 21 21 20 19 19 19 18 18 18 17 17 16 16
32 33 33 34 34 36 37 38 41 44 47 50 53 55 56 55 55 55 54 53 52 51 50 48 47 45 43 41 40 39 38 37 36 33 30 28 26 25 24 23 21 21 20 19 19 19 19 19 18 18 19 19 19 19 19 20 21 21 22 22 22 22 22 22 23 22 21 20 20 21 21 21 21 21 20 19 19 18 18 17 17 16 16 16 15
33 34 34 35 35 36 36 37 39 42 44 47 51 53 55 56 56 55 55 54 53 51 50 48 47 45 43 41 40 40 39 37 35 32 29 28 27 26 25 23 22 21 21 20 20 20 20 20 20 20 21 21 21 21 21 22 23 23 23 23 23 23 23 23 23 23 22 21 20 20 20 21 21 20 20 20 19 18 17 17 16 16 16 15 14
34 35 36 36 37 37 37 38 39 41 43 46 48 51 54 55 56 55 54 54 53 52 50 48 46 44 42 41 39 39 38 36 33 31 29 28 28 27 26 24 23 22 21 21 20 21 21 21 21 21 22 22 22 22 23 23 24 24 25 25 24 24 24 24 24 24 23 23 21 20 20 20 20 20 20 20 19 18 17 16 16 16 16 15 14
Wind_Direction
231 233 233 231 230 228 227 227 226 227 227 227 228 226 223 216 209 204 199 197 197 194 189 185 183 185 185 184 184 182 183 184 184 186 192 206 223 247 274 286 296 302 306 307 309 311 313 317 321 323 324 323 323 322 323 323 323 323 323 321 321 319 317 314 310 311 318 321 320 320 320 319 319 320 320 320 321 323 323 325 326 325 325 324 323
228 229 229 228 228 227 227 227 226 227 227 225 222 216 210 205 199 198 197 195 192 187 184 183 183 184 185 184 184 184 186 189 192 198 206 223 239 255 272 283 294 299 303 307 310 314 316 318 320 320 320 319 320 320 321 322 322 323 323 321 321 319 317 315 312 311 315 320 321 320 320 320 320 320 322 323 325 325 325 327 328 326 325 325 324
225 225 226 225 226 225 225 225 225 224 221 216 210 204 200 198 196 196 194 191 186 182 182 184 184 184 184 185 186 188 192 195 201 208 215 229 243 255 270 280 291 298 303 308 312 314 316 316 316 316 316 317 318 319 321 322 323 324 324 322 321 320 318 316 315 313 314 317 320 321 320 321 321 322 325 327 328 328 327 327 326 325 324 324 323
218 219 221 221 221 221 221 220 218 215 209 203 199 196 195 195 195 194 189 185 182 182 182 183 185 185 186 189 192 194 199 204 209 215 222 233 246 256 270 280 289 298 303 307 310 312 312 313 312 313 315 316 318 319 321 323 324 324 324 323 322 321 321 319 317 315 314 315 319 320 320 321 322 325 328 329 329 329 327 325 325 324 324 324 323
212 215 216 217 217 215 213 211 208 204 199 196 195 194 194 195 193 189 184 182 184 184 182 182 185 187 190 195 198 201 206 211 216 224 230 238 251 261 273 284 291 298 302 305 308 309 309 310 312 314 316 317 317 319 321 322 324 325 325 325 324 323 322 322 320 318 316 315 317 319 320 322 323 326 330 330 328 328 327 325 325 325 325 324 323
210 211 212 211 210 207 204 202 200 198 195 193 193 194 194 192 189 184 182 184 185 184 183 185 188 191 195 199 203 207 212 217 223 229 238 247 259 270 278 286 293 297 301 304 306 307 308 311 314 315 315 316 317 319 322 324 325 327 327 326 326 325 325 324 323 321 319 318 318 320 322 324 325 328 332 331 328 327 327 326 325 325 326 325 324
209 208 207 206 203 200 197 196 195 194 193 193 194 195 192 189 186 183 183 186 188 188 188 190 192 195 200 203 207 212 217 223 229 234 245 256 266 276 283 288 294 297 301 304 304 307 310 313 315 315 314 315 319 322 326 327 327 328 328 328 328 327 327 326 325 324 323 321 321 322 323 324 326 329 331 331 328 327 328 326 324 325 327 326 325
207 204 203 200 198 196 194 194 194 194 195 196 195 193 189 186 185 184 184 187 190 192 194 197 198 199 203 208 212 217 220 225 232 239 250 262 270 277 284 288 293 298 300 302 303 307 312 313 313 313 314 319 323 326 328 328 328 329 329 329 329 329 328 328 327 326 324 323 323 324 325 326 328 330 330 331 329 328 328 326 323 324 326 325 324
202 200 198 196 194 194 194 194 196 197 197 196 194 191 188 186 186 186 186 188 191 195 197 200 204 206 208 212 215 219 222 225 233 243 253 264 270 277 284 287 292 296 296 299 303 307 311 312 312 314 318 323 326 327 328 328 328 329 329 330 330 329 329 329 328 326 325 324 325 326 326 327 329 329 328 329 328 327 328 327 323 323 324 323 322
201 199 198 196 196 196 197 198 199 199 198 195 192 190 188 188 188 188 189 191 194 197 199 202 206 210 213 216 218 219 222 227 236 247 256 265 272 279 284 287 292 293 293 297 303 306 309 311 313 318 322 325 326 326 327 327 328 329 329 329 330 330 330 329 328 328 327 326 326 326 325 326 329 328 326 327 328 327 327 326 323 322 323 322 320
204 203 202 201 201 201 202 202 202 200 198 195 192 191 191 191 190 191 193 194 196 199 203 206 209 212 215 218 219 221 225 231 240 251 259 267 274 279 285 289 293 293 295 299 303 307 310 312 316 321 323 324 325 325 326 326 327 328 328 330 331 331 331 330 329 329 329 327 326 326 324 323 327 328 326 327 328 326 324 323 321 321 322 320 317
208 208 207 207 208 207 207 206 204 202 199 196 194 194 194 193 193 195 196 198 199 202 205 209 212 215 217 218 220 222 228 236 245 254 261 268 275 280 286 290 291 292 296 301 306 309 312 315 319 321 323 324 324 325 326 325 326 328 330 332 332 332 332 331 330 329 329 327 325 327 325 322 324 327 327 326 325 323 321 320 319 319 318 316 313
214 213 212 213 213 212 210 208 206 204 201 198 197 196 196 197 197 198 199 200 202 204 207 210 214 216 217 218 221 225 233 241 248 256 263 269 276 282 286 288 289 292 298 304 309 312 314 316 319 321 323 324 324 325 325 326 328 331 332 333 332 332 333 332 331 329 328 326 325 327 329 325 322 324 326 323 320 319 317 316 316 317 315 314 312
218 217 216 217 216 214 212 210 208 206 202 200 199 198 199 199 199 200 201 202 204 207 210 212 214 216 217 219 224 229 235 243 249 257 264 271 278 283 285 287 290 296 303 308 312 314 316 317 318 320 323 323 324 326 327 329 331 332 333 333 332 332 333 333 332 330 330 329 326 327 330 327 320 319 320 319 316 315 315 314 314 315 313 312 312
223 221 219 218 217 215 213 210 208 206 203 201 200 200 200 200 200 201 202 204 207 209 212 213 214 215 217 220 225 230 235 243 250 258 267 275 280 283 285 289 295 301 306 309 312 315 317 317 317 320 323 324 327 329 330 331 332 332 332 332 330 332 335 335 333 332 332 332 328 326 327 325 320 318 319 319 317 316 316 314 313 314 314 314 314
227 224 222 220 217 215 213 211 208 206 204 202 201 201 201 201 201 202 203 205 208 210 211 213 213 215 217 220 225 230 237 245 252 262 271 278 281 284 289 294 299 303 306 308 312 315 316 316 317 320 324 327 330 332 332 332 331 330 331 330 329 332 335 334 332 333 333 333 330 327 325 324 323 323 324 325 324 321 319 316 317 319 319 318 317
230 227 224 221 218 216 214 212 210 207 205 204 203 202 202 202 202 204 206 207 209 210 211 211 212 215 217 221 226 232 238 246 255 266 275 279 283 287 293 297 300 302 305 307 311 315 315 316 318 322 326 329 331 333 333 330 329 330 330 329 330 332 333 332 331 333 334 332 331 330 329 328 328 328 331 333 331 326 322 321 323 325 323 320 317
233 230 227 224 220 218 216 213 211 209 208 206 205 204 203 203 205 207 209 210 211 210 211 212 213 215 218 222 227 233 240 248 258 269 277 282 287 291 295 297 299 300 303 306 309 313 316 318 321 324 327 330 331 333 332 329 329 330 330 330 330 331 332 331 331 332 332 332 332 332 332 332 333 335 338 339 337 332 328 327 329 328 324 320 317
237 233 229 225 221 218 216 213 212 210 209 208 207 206 205 205 206 208 209 210 211 211 211 211 214 217 219 224 228 234 241 251 262 272 281 287 291 293 295 297 298 299 302 305 308 313 317 320 323 326 328 330 331 332 332 330 329 331 330 329 329 329 330 331 331 331 331 332 333 333 333 335 337 339 342 342 341 339 337 335 334 330 325 320 319
239 234 230 225 221 218 216 214 212 211 210 209 208 207 208 208 208 209 208 208 208 210 211 211 214 218 222 225 229 235 244 255 267 278 287 291 292 294 295 296 297 298 301 304 308 314 318 322 324 326 329 331 332 331 332 330 329 329 329 327 327 328 328 328 328 329 329 330 331 332 334 336 337 340 343 343 344 345 343 340 337 333 328 324 323
240 235 230 226 223 219 216 215 213 211 211 211 210 209 210 210 211 210 210 208 207 209 211 212 215 219 221 225 230 237 248 261 275 286 291 291 291 293 295 295 296 298 301 306 310 315 320 322 324 327 330 333 333 332 331 329 328 327 327 327 326 325 324 324 325 326 326 327 328 330 333 335 335 337 340 343 346 347 345 341 339 337 335 331 327
240 236 231 226 223 219 217 215 213 211 211 211 211 211 211 211 211 211 210 210 209 210 212 214 217 218 221 225 231 239 253 271 283 288 288 287 288 291 293 294 296 298 303 308 313 318 321 322 324 329 333 335 335 332 329 328 328 327 326 325 323 322 322 323 324 325 325 326 327 330 332 334 334 336 338 341 346 347 344 340 338 339 339 336 332
240 236 231 226 222 218 216 214 213 211 211 211 212 212 211 210 210 210 211 211 211 213 214 215 217 219 222 225 231 245 263 276 282 282 282 282 285 288 291 293 295 299 305 310 315 318 320 321 325 331 336 335 333 331 329 328 328 327 325 324 323 323 323 324 324 325 325 326 327 329 332 334 336 337 339 343 346 346 343 340 339 339 339 338 336
240 235 231 226 222 218 216 214 213 212 211 211 212 212 212 211 210 210 211 212 214 215 215 216 218 220 222 226 238 257 269 275 277 276 276 279 282 286 289 292 296 301 307 311 315 317 319 323 329 333 334 333 332 332 331 329 327 326 326 325 325 325 325 325 326 326 327 328 329 329 331 335 337 338 340 343 344 343 342 340 340 341 341 339 338
241 237 232 227 223 219 217 215 214 213 212 213 213 212 213 212 211 211 211 212 214 215 216 218 218 218 222 235 252 265 271 273 273 271 272 276 281 285 289 292 297 302 306 309 313 317 321 325 329 331 332 332 334 333 331 328 328 328 327 326 326 326 326 328 330 330 330 331 330 330 331 333 335 338 340 342 343 343 342 341 341 342 342 341 340
243 238 234 229 224 221 218 216 214 213 212 213 213 214 215 215 214 214 214 213 214 215 216 217 217 221 234 249 261 269 271 269 267 266 270 276 281 285 289 292 296 300 303 307 313 317 322 325 327 330 333 335 335 333 331 329 329 328 327 327 327 328 330 332 334 334 333 332 332 331 331 331 334 338 340 341 342 344 345 344 342 342 344 343 341
245 240 235 230 225 221 219 217 215 214 212 212 212 213 214 216 217 217 216 215 214 214 215 217 223 236 250 260 266 268 265 261 261 265 271 276 280 284 287 290 294 298 302 308 314 319 323 326 328 331 334 334 333 330 329 328 327 326 328 329 329 332 334 336 337 336 335 334 333 332 332 333 335 339 341 342 343 346 348 348 345 344 345 345 343
246 242 236 231 226 222 219 217 216 215 213 213 213 213 214 215 216 218 218 218 217 215 219 228 240 252 260 264 265 262 257 256 259 265 270 275 279 283 286 289 294 300 305 310 316 321 324 325 326 329 330 329 327 326 326 326 327 328 330 331 332 334 336 338 339 339 338 337 336 334 335 337 339 341 343 344 345 348 350 350 349 348 347 347 346
246 242 237 231 226 222 219 218 217 216 216 215 214 215 215 215 216 217 217 217 218 223 233 246 256 261 262 260 258 255 253 255 259 263 267 273 277 280 285 290 295 301 306 311 315 319 320 320 322 324 325 325 326 327 328 329 330 331 334 335 334 336 338 340 342 343 343 342 341 341 341 342 343 344 345 345 347 350 352 353 352 351 350 349 348
245 241 237 232 227 223 220 219 218 217 217 217 216 215 214 214 215 214 214 216 224 237 249 256 258 255 253 252 250 249 250 253 257 261 266 271 275 279 285 291 295 300 305 308 311 313 314 315 318 321 323 325 327 329 330 331 332 334 337 339 338 338 341 344 346 347 347 347 346 346 347 346 346 347 346 346 347 350 353 354 354 353 352 351 350
245 242 238 233 228 224 222 221 219 219 218 218 218 216 214 213 212 212 216 224 235 247 254 256 253 250 248 246 245 245 248 252 257 260 264 268 274 280 285 290 295 299 302 305 307 308 310 313 316 319 321 324 327 329 329 331 334 336 339 341 342 342 344 347 350 351 350 350 350 350 349 349 349 348 348 348 349 350 352 354 355 354 353 353 353
247 244 240 235 229 225 223 222 221 220 219 218 217 217 216 215 213 213 220 232 242 251 254 254 252 249 245 243 242 243 247 252 256 259 262 267 274 279 283 288 293 296 299 302 303 305 309 312 315 317 319 323 325 327 329 332 336 338 339 341 343 345 346 348 351 353 353 353 352 351 351 351 351 350 351 352 352 352 353 354 354 353 353 355 357
250 245 241 236 230 226 224 223 223 223 221 220 219 218 218 218 217 219 227 236 244 251 254 252 247 243 240 238 239 242 246 250 254 258 261 266 271 276 281 286 289 293 296 298 301 304 308 311 312 315 319 322 324 326 329 332 336 338 339 341 342 344 345 347 348 351 353 354 353 351 352 353 352 352 354 356 355 354 354 354 353 353 354 356 360
251 246 241 236 232 229 227 226 225 225 224 223 222 221 221 220 220 226 236 242 248 254 253 247 240 237 236 237 239 242 246 250 253 256 259 263 269 274 279 283 287 290 294 296 299 303 305 307 311 314 317 319 322 325 328 331 334 336 339 340 340 340 342 344 345 348 352 353 351 350 352 354 353 354 355 357 357 356 355 354 353 354 355 357 0
249 245 241 236 233 232 230 229 228 226 225 225 224 225 224 222 224 233 244 250 254 257 252 243 237 235 236 238 240 242 246 250 252 255 259 263 267 273 277 281 285 289 292 295 298 299 301 305 309 312 314 317 320 323 327 330 333 335 337 338 338 339 340 341 343 345 349 350 348 349 351 352 353 355 356 356 357 356 355 354 354 355 356 358 0
249 245 241 237 234 233 232 231 230 229 228 227 227 226 225 225 230 238 244 248 251 250 245 240 237 236 238 239 239 242 246 248 250 254 258 261 265 270 274 279 283 286 290 294 296 297 299 303 307 309 313 316 319 322 324 327 330 333 334 335 336 336 337 338 340 341 345 346 346 347 349 350 351 353 354 355 356 357 356 354 353 354 356 358 0
251 248 244 239 236 234 233 232 232 231 231 230 229 228 227 228 233 238 241 242 243 241 238 237 236 237 238 239 239 242 245 245 248 252 255 258 262 266 270 274 279 283 287 291 293 294 297 301 305 309 312 315 316 318 321 323 326 328 331 333 333 333 333 335 336 338 340 343 344 345 346 348 350 352 353 354 356 358 358 355 353 353 355 358 1
254 251 247 243 239 237 235 233 233 232 232 231 231 231 230 231 235 238 239 238 237 236 236 236 236 237 240 240 240 243 245 245 247 252 254 256 259 261 265 270 274 279 283 285 288 292 295 299 303 306 308 311 313 315 317 319 321 323 327 330 331 330 330 331 332 334 336 340 343 344 344 345 349 352 353 353 355 357 358 357 354 352 353 357 2
256 253 250 246 242 239 237 235 234 234 234 234 233 233 233 233 236 239 238 236 236 236 236 238 239 240 240 240 241 244 245 245 248 251 252 254 256 258 262 267 272 276 280 284 287 290 292 295 299 302 304 307 310 311 312 313 315 318 322 325 327 328 328 328 330 333 336 338 341 342 343 344 347 351 352 353 355 357 358 357 355 352 352 356 1
261 258 253 248 245 242 239 237 236 236 236 237 236 236 236 236 238 240 239 237 237 238 238 240 241 241 240 241 244 245 245 245 247 249 251 253 255 256 261 267 271 275 278 282 285 286 287 290 294 297 301 304 306 306 307 308 310 313 316 319 323 325 327 328 329 332 335 337 338 340 341 343 345 349 351 352 354 356 357 357 356 353 352 354 359
265 261 257 253 248 245 242 240 239 239 239 239 239 239 239 240 241 241 240 239 239 240 240 241 241 240 241 242 243 243 243 244 245 248 250 252 253 257 262 267 269 272 276 279 282 282 282 285 290 294 298 301 301 301 302 302 305 308 311 315 319 322 323 325 327 329 332 334 335 337 339 341 344 347 349 349 351 353 356 357 356 354 353 355 358
265 262 259 256 252 248 245 244 243 242 242 241 241 241 241 241 242 241 241 240 241 240 240 240 239 238 239 240 240 241 241 242 244 246 248 250 253 256 261 263 265 268 272 275 277 277 278 282 288 292 296 298 297 297 298 299 302 305 307 310 314 317 320 322 324 326 328 331 332 334 336 338 341 344 346 347 349 350 353 355 355 354 354 355 359
268 264 261 258 254 251 249 247 246 245 244 244 243 243 242 242 243 243 242 242 241 240 240 239 237 237 237 238 239 240 240 241 243 245 246 249 252 255 257 259 261 265 268 271 273 274 276 281 286 290 293 295 296 296 297 300 303 306 306 308 311 313 316 319 321 322 325 327 329 331 332 334 337 340 343 345 346 348 349 351 353 354 353 354 357
273 269 265 261 258 255 252 250 248 248 247 246 245 245 244 243 243 243 242 242 241 241 240 238 237 237 238 238 239 241 241 241 241 242 244 248 250 252 255 256 259 262 266 269 271 272 274 278 282 286 291 294 295 297 300 303 307 309 309 310 311 313 315 316 318 319 320 322 324 327 328 329 332 335 338 341 343 344 346 348 349 350 350 351 353
275 272 269 267 263 259 256 254 251 250 249 247 247 246 245 245 245 244 243 243 242 241 240 238 237 237 238 239 240 241 241 240 240 241 244 246 247 249 252 254 257 260 264 266 269 271 272 274 277 282 287 291 294 298 301 304 308 310 311 312 313 314 315 315 315 316 317 317 319 322 323 325 328 330 333 336 338 340 343 344 345 345 346 346 350
273 272 270 269 266 264 261 259 256 254 252 250 249 249 248 247 246 245 244 243 242 241 240 239 238 238 238 239 240 240 239 238 240 242 242 243 244 247 250 252 254 257 260 263 266 269 270 272 276 279 283 287 290 294 298 302 305 307 308 310 312 313 314 314 314 315 315 314 315 316 317 319 322 325 327 330 332 335 337 339 340 341 341 341 343
273 273 271 269 267 266 263 261 259 257 255 253 252 250 249 248 246 245 244 243 241 240 239 238 237 237 238 239 239 239 238 240 241 241 240 241 243 246 249 250 251 253 255 258 263 266 268 271 275 277 280 283 285 288 292 295 298 300 302 304 305 307 309 310 311 312 313 312 312 312 313 314 316 318 320 322 324 327 331 333 334 336 337 336 334
275 274 273 272 270 267 265 263 261 259 257 255 253 252 250 248 247 245 243 242 240 239 239 237 236 237 239 239 239 239 240 240 240 238 238 241 244 245 247 248 248 249 251 254 258 261 265 268 272 276 279 281 282 285 287 289 292 293 294 295 297 299 302 304 305 308 310 310 310 310 310 310 311 312 313 315 317 320 324 326 328 330 332 331 329
276 275 274 273 271 270 268 266 264 262 260 258 256 254 252 250 248 246 245 243 241 241 240 238 237 238 239 239 239 239 239 238 238 238 240 243 245 245 245 245 244 246 249 252 254 257 261 265 269 274 278 279 281 283 285 286 288 289 289 289 290 291 294 296 299 301 304 306 308 308 308 308 308 308 308 309 311 313 316 319 321 322 323 325 324
280 279 277 275 273 271 270 268 266 265 263 261 258 256 254 252 250 248 246 243 242 240 239 238 237 238 239 240 240 240 239 238 238 240 242 244 244 244 243 242 242 244 247 249 251 255 259 263 268 272 275 278 281 283 284 286 288 287 286 285 285 285 287 289 292 295 298 301 303 305 306 307 308 308 306 305 306 307 308 311 313 314 316 317 318
285 282 280 279 277 274 272 269 266 265 263 261 259 257 254 252 250 249 247 244 242 241 239 238 238 239 240 241 240 239 238 238 239 241 242 243 243 242 241 240 241 242 244 246 249 253 258 262 266 270 274 278 281 283 285 287 288 287 286 285 284 283 283 284 286 289 292 295 298 301 304 305 307 308 307 305 304 304 304 304 305 308 309 310 311